| time (UTC) | temp F | wind direction | speed MPH | gust MPH | rain 1hr in | rain 24hr in | rain mn in | humidity % | barometer mb |
| 20260902160306 | 72 | 4 | 2.0 | 9.0 | 0.00 | 0.00 | 0.00 | 58 | 1022.1 |
| 20260902160218 | 73 | 69 | 4.0 | 9.0 | 0.00 | 0.00 | 0.00 | 58 | 1022.1 |
| 20260902155306 | 73 | 244 | 0.0 | 6.0 | 0.00 | 0.00 | 0.00 | 59 | 1022.0 |
| 20260902154801 | 73 | 42 | 0.0 | 6.0 | 0.00 | 0.00 | 0.00 | 61 | 1022.0 |
| 20260902154302 | 73 | 318 | 2.0 | 4.0 | 0.00 | 0.00 | 0.00 | 59 | 1022.0 |
| 20260902153800 | 72 | 280 | 4.0 | 6.0 | 0.00 | 0.00 | 0.00 | 61 | 1021.9 |
| 20260902153256 | 71 | 10 | 2.0 | 6.0 | 0.00 | 0.00 | 0.00 | 63 | 1021.8 |
| 20260902152756 | 71 | 66 | 3.0 | 10.0 | 0.00 | 0.00 | 0.00 | 62 | 1022.1 |
| 20260902152257 | 71 | 63 | 2.0 | 10.0 | 0.00 | 0.00 | 0.00 | 62 | 1021.9 |
| 20260902151757 | 72 | 35 | 5.0 | 7.0 | 0.00 | 0.00 | 0.00 | 62 | 1021.8 |
| 20260902151719 | 71 | 43 | 7.0 | 9.0 | 0.00 | 0.00 | 0.00 | 62 | 1021.8 |
| 20260902150753 | 71 | 57 | 4.0 | 9.0 | 0.00 | 0.00 | 0.00 | 65 | 1021.9 |
| 20260902150252 | 71 | 48 | 7.0 | 9.0 | 0.00 | 0.00 | 0.00 | 65 | 1022.0 |
| 20260902145749 | 70 | 90 | 0.0 | 9.0 | 0.00 | 0.00 | 0.00 | 69 | 1021.9 |
| 20260902145248 | 69 | 23 | 2.0 | 9.0 | 0.00 | 0.00 | 0.00 | 68 | 1021.7 |
| 20260902144747 | 69 | 19 | 3.0 | 9.0 | 0.00 | 0.00 | 0.00 | 68 | 1021.8 |
| 20260902144249 | 70 | 95 | 2.0 | 6.0 | 0.00 | 0.00 | 0.00 | 68 | 1021.8 |
| 20260902143746 | 69 | 31 | 2.0 | 8.0 | 0.00 | 0.00 | 0.00 | 69 | 1021.9 |
| 20260902143246 | 69 | 50 | 4.0 | 8.0 | 0.00 | 0.00 | 0.00 | 70 | 1022.1 |
| 20260902142746 | 68 | 52 | 1.0 | 10.0 | 0.00 | 0.00 | 0.00 | 74 | 1022.0 |
| 20260902142245 | 67 | 36 | 6.0 | 10.0 | 0.00 | 0.00 | 0.00 | 72 | 1022.0 |
| 20260902141742 | 67 | 31 | 1.0 | 8.0 | 0.00 | 0.00 | 0.00 | 75 | 1022.2 |
| 20260902141244 | 67 | 33 | 5.0 | 8.0 | 0.00 | 0.00 | 0.00 | 74 | 1022.2 |
| 20260902140744 | 66 | 63 | 2.0 | 10.0 | 0.00 | 0.00 | 0.00 | 77 | 1022.4 |
| 20260902140243 | 66 | 40 | 5.0 | 11.0 | 0.00 | 0.00 | 0.00 | 76 | 1022.5 |
| 20260902135743 | 66 | 47 | 7.0 | 11.0 | 0.00 | 0.00 | 0.00 | 75 | 1022.4 |
| 20260902135644 | 66 | 50 | 6.0 | 9.0 | 0.00 | 0.00 | 0.00 | 76 | 1022.3 |
| 20260902134740 | 66 | 59 | 3.0 | 8.0 | 0.00 | 0.00 | 0.00 | 78 | 1022.4 |
| 20260902134238 | 65 | 95 | 4.0 | 8.0 | 0.00 | 0.00 | 0.00 | 79 | 1022.4 |
| 20260902133738 | 65 | 42 | 3.0 | 8.0 | 0.00 | 0.00 | 0.00 | 80 | 1022.4 |
| 20260902133234 | 65 | 53 | 3.0 | 7.0 | 0.00 | 0.00 | 0.00 | 84 | 1022.5 |
| 20260902132733 | 64 | 40 | 5.0 | 9.0 | 0.00 | 0.00 | 0.00 | 83 | 1022.5 |
| 20260902132232 | 63 | 15 | 7.0 | 9.0 | 0.00 | 0.00 | 0.00 | 85 | 1022.5 |
| 20260902131729 | 63 | 357 | 4.0 | 8.0 | 0.00 | 0.00 | 0.00 | 88 | 1022.7 |
| 20260902131227 | 62 | 52 | 4.0 | 8.0 | 0.00 | 0.00 | 0.00 | 90 | 1022.5 |
| 20260902130724 | 62 | 31 | 4.0 | 7.0 | 0.00 | 0.00 | 0.00 | 91 | 1022.6 |
| 20260902130215 | 61 | 49 | 5.0 | 7.0 | 0.00 | 0.00 | 0.00 | 96 | 1022.9 |
| 20260902130141 | 60 | 54 | 3.0 | 5.0 | 0.00 | 0.00 | 0.00 | 99 | 1023.0 |
| 20260902125208 | 59 | 88 | 4.0 | 6.0 | 0.00 | 0.00 | 0.00 | 99 | 1022.7 |
| 20260902124707 | 59 | 47 | 2.0 | 6.0 | 0.00 | 0.00 | 0.00 | 99 | 1022.7 |
| 20260902124206 | 58 | 37 | 0.0 | 5.0 | 0.00 | 0.00 | 0.00 | 99 | 1022.8 |
| 20260902124109 | 57 | 39 | 3.0 | 7.0 | 0.00 | 0.00 | 0.00 | 99 | 1022.7 |
| 20260902123210 | 56 | 14 | 3.0 | 7.0 | 0.00 | 0.00 | 0.00 | 99 | 1022.8 |
| 20260902122706 | 56 | 346 | 1.0 | 7.0 | 0.00 | 0.00 | 0.00 | 99 | 1022.9 |
| 20260902122203 | 56 | 24 | 2.0 | 5.0 | 0.00 | 0.00 | 0.00 | 99 | 1022.7 |
| 20260902121704 | 55 | 32 | 3.0 | 5.0 | 0.00 | 0.00 | 0.00 | 99 | 1022.8 |
| 20260902121202 | 55 | 37 | 4.0 | 5.0 | 0.00 | 0.00 | 0.00 | 99 | 1023.0 |
| 20260902121125 | 55 | 74 | 2.0 | 4.0 | 0.00 | 0.00 | 0.00 | 99 | 1022.9 |
| 20260902120200 | 54 | 36 | 1.0 | 4.0 | 0.00 | 0.00 | 0.00 | 99 | 1023.1 |
| 20260902115701 | 53 | 48 | 1.0 | 4.0 | 0.00 | 0.00 | 0.00 | 99 | 1023.0 |
| 20260902115201 | 53 | 52 | 3.0 | 4.0 | 0.00 | 0.00 | 0.00 | 99 | 1022.9 |
| 20260902114656 | 52 | 47 | 2.0 | 4.0 | 0.00 | 0.00 | 0.00 | 99 | 1023.0 |
| 20260902114151 | 52 | 50 | 3.0 | 3.0 | 0.00 | 0.00 | 0.00 | 99 | 1022.9 |
| 20260902113649 | 51 | 44 | 2.0 | 2.0 | 0.00 | 0.00 | 0.00 | 99 | 1023.0 |
| 20260902113149 | 51 | 37 | 0.0 | 2.0 | 0.00 | 0.00 | 0.00 | 99 | 1023.1 |
| 20260902112645 | 51 | 35 | 0.0 | 2.0 | 0.00 | 0.00 | 0.00 | 99 | 1023.1 |
| 20260902112145 | 51 | 60 | 2.0 | 2.0 | 0.00 | 0.00 | 0.00 | 99 | 1023.2 |
| 20260902111655 | 50 | 19 | 0.0 | 2.0 | 0.00 | 0.00 | 0.00 | 99 | 1023.0 |
| 20260902111143 | 50 | 54 | 1.0 | 2.0 | 0.00 | 0.00 | 0.00 | 99 | 1023.0 |
| 20260902110639 | 50 | 64 | 0.0 | 3.0 | 0.00 | 0.00 | 0.00 | 99 | 1023.0 |
| 20260902110153 | 49 | 24 | 0.0 | 4.0 | 0.00 | 0.00 | 0.00 | 99 | 1022.8 |
| 20260902110136 | 49 | 73 | 0.0 | 4.0 | 0.00 | 0.00 | 0.00 | 99 | 1022.8 |
| 20260902105131 | 49 | 55 | 2.0 | 4.0 | 0.00 | 0.00 | 0.00 | 99 | 1022.8 |
| 20260902104630 | 49 | 38 | 3.0 | 4.0 | 0.00 | 0.00 | 0.00 | 99 | 1022.9 |
| 20260902104125 | 48 | 14 | 2.0 | 4.0 | 0.00 | 0.00 | 0.00 | 99 | 1022.5 |
| 20260902103624 | 48 | 51 | 2.0 | 4.0 | 0.00 | 0.00 | 0.00 | 99 | 1022.6 |
| 20260902103120 | 48 | 34 | 2.0 | 3.0 | 0.00 | 0.00 | 0.00 | 99 | 1022.7 |
| 20260902102619 | 47 | 49 | 2.0 | 2.0 | 0.00 | 0.00 | 0.00 | 99 | 1022.6 |
| 20260902102118 | 47 | 46 | 2.0 | 2.0 | 0.00 | 0.00 | 0.00 | 99 | 1022.5 |
| 20260902102013 | 46 | 43 | 0.0 | 2.0 | 0.00 | 0.00 | 0.00 | 99 | 1022.7 |
| 20260902101111 | 46 | 20 | 0.0 | 1.0 | 0.00 | 0.00 | 0.00 | 99 | 1022.5 |
| 20260902100613 | 46 | 37 | 0.0 | 1.0 | 0.00 | 0.00 | 0.00 | 99 | 1022.4 |
| 20260902100534 | 46 | 117 | 0.0 | 1.0 | 0.00 | 0.00 | 0.00 | 99 | 1022.4 |
| 20260902095622 | 46 | 21 | 0.0 | 2.0 | 0.00 | 0.00 | 0.00 | 99 | 1022.3 |
| 20260902095119 | 46 | 78 | 0.0 | 2.0 | 0.00 | 0.00 | 0.00 | 99 | 1022.4 |
| 20260902094613 | 46 | 36 | 1.0 | 2.0 | 0.00 | 0.00 | 0.00 | 99 | 1022.2 |
| 20260902094112 | 45 | 12 | 2.0 | 2.0 | 0.00 | 0.00 | 0.00 | 98 | 1022.3 |
| 20260902093611 | 46 | 73 | 0.0 | 1.0 | 0.00 | 0.00 | 0.00 | 98 | 1022.2 |
| 20260902093108 | 46 | 99 | 0.0 | 1.0 | 0.00 | 0.00 | 0.00 | 98 | 1022.0 |
| 20260902092617 | 46 | 19 | 1.0 | 1.0 | 0.00 | 0.00 | 0.00 | 98 | 1022.2 |
| 20260902092102 | 46 | 0 | 0.0 | 2.0 | 0.00 | 0.00 | 0.00 | 98 | 1022.2 |
| 20260902091602 | 46 | 7 | 0.0 | 2.0 | 0.00 | 0.00 | 0.00 | 98 | 1022.1 |
| 20260902091114 | 46 | 110 | 0.0 | 1.0 | 0.00 | 0.00 | 0.00 | 98 | 1022.0 |
| 20260902091036 | 46 | 25 | 0.0 | 2.0 | 0.00 | 0.00 | 0.00 | 98 | 1022.1 |
| 20260902090539 | 46 | 338 | 0.0 | 2.0 | 0.00 | 0.00 | 0.00 | 98 | 1022.0 |
| 20260902085554 | 46 | 57 | 1.0 | 2.0 | 0.00 | 0.00 | 0.00 | 98 | 1021.9 |
| 20260902085051 | 46 | 31 | 1.0 | 2.0 | 0.00 | 0.00 | 0.00 | 98 | 1021.9 |
| 20260902084601 | 46 | 345 | 0.0 | 2.0 | 0.00 | 0.00 | 0.00 | 98 | 1021.8 |
| 20260902084058 | 46 | 4 | 0.0 | 2.0 | 0.00 | 0.00 | 0.00 | 98 | 1021.7 |
| 20260902083557 | 47 | 345 | 0.0 | 2.0 | 0.00 | 0.00 | 0.00 | 98 | 1021.9 |
| 20260902083044 | 47 | 17 | 0.0 | 1.0 | 0.00 | 0.00 | 0.00 | 98 | 1021.8 |
| 20260902082958 | 47 | 99 | 0.0 | 1.0 | 0.00 | 0.00 | 0.00 | 98 | 1021.7 |
| 20260902082055 | 47 | 96 | 0.0 | 2.0 | 0.00 | 0.00 | 0.00 | 98 | 1021.6 |
| 20260902081543 | 47 | 27 | 0.0 | 2.0 | 0.00 | 0.00 | 0.00 | 98 | 1021.6 |
| 20260902081046 | 47 | 34 | 1.0 | 2.0 | 0.00 | 0.00 | 0.00 | 98 | 1021.5 |
| 20260902080540 | 47 | 36 | 0.0 | 2.0 | 0.00 | 0.00 | 0.00 | 98 | 1021.6 |
| 20260902080454 | 47 | 9 | 0.0 | 2.0 | 0.00 | 0.00 | 0.00 | 98 | 1021.6 |
| 20260902075544 | 47 | 9 | 0.0 | 2.0 | 0.00 | 0.00 | 0.00 | 98 | 1021.2 |
| 20260902075533 | 47 | 64 | 0.0 | 1.0 | 0.00 | 0.00 | 0.00 | 98 | 1021.6 |
| 20260902074730 | 47 | 359 | 0.0 | 2.0 | 0.00 | 0.00 | 0.00 | 98 | 1021.4 |
| 20260902073539 | 48 | 319 | 0.0 | 2.0 | 0.00 | 0.00 | 0.00 | 98 | 1021.3 |
| 20260902073028 | 48 | 7 | 0.0 | 1.0 | 0.00 | 0.00 | 0.00 | 98 | 1021.4 |
| 20260902072525 | 48 | 46 | 0.0 | 1.0 | 0.00 | 0.00 | 0.00 | 98 | 1021.4 |
| 20260902072441 | 49 | 51 | 0.0 | 2.0 | 0.00 | 0.00 | 0.00 | 98 | 1021.0 |
| 20260902071524 | 49 | 51 | 0.0 | 4.0 | 0.00 | 0.00 | 0.00 | 98 | 1021.2 |
| 20260902071019 | 49 | 0 | 0.0 | 4.0 | 0.00 | 0.00 | 0.00 | 98 | 1021.1 |
| 20260902070520 | 49 | 356 | 1.0 | 3.0 | 0.00 | 0.00 | 0.00 | 98 | 1021.1 |
| 20260902070020 | 49 | 39 | 2.0 | 3.0 | 0.00 | 0.00 | 0.00 | 98 | 1021.0 |
| 20260902065519 | 49 | 38 | 1.0 | 3.0 | 0.00 | 0.00 | 0.00 | 98 | 1021.0 |
| 20260902065017 | 49 | 41 | 2.0 | 3.0 | 0.00 | 0.00 | 0.00 | 98 | 1020.7 |
| 20260902064938 | 49 | 33 | 2.0 | 3.0 | 0.00 | 0.00 | 0.00 | 98 | 1020.8 |
| 20260902064012 | 49 | 12 | 0.0 | 1.0 | 0.00 | 0.00 | 0.00 | 98 | 1020.9 |
| 20260902063930 | 49 | 359 | 0.0 | 1.0 | 0.00 | 0.00 | 0.00 | 98 | 1020.8 |
| 20260902063013 | 49 | 329 | 0.0 | 2.0 | 0.00 | 0.00 | 0.00 | 98 | 1021.0 |
| 20260902062509 | 49 | 25 | 1.0 | 2.0 | 0.00 | 0.00 | 0.00 | 98 | 1020.8 |
| 20260902062011 | 48 | 18 | 0.0 | 1.0 | 0.00 | 0.00 | 0.00 | 97 | 1021.0 |
| 20260902061508 | 49 | 341 | 0.0 | 1.0 | 0.00 | 0.00 | 0.00 | 97 | 1020.8 |
| 20260902061008 | 49 | 12 | 0.0 | 1.0 | 0.00 | 0.00 | 0.00 | 97 | 1020.9 |
| 20260902060503 | 49 | 308 | 0.0 | 1.0 | 0.00 | 0.00 | 0.00 | 97 | 1020.9 |
| 20260902055959 | 49 | 308 | 0.0 | 1.0 | 0.00 | 0.00 | 0.00 | 97 | 1020.9 |
| 20260902055526 | 49 | 0 | 0.0 | 2.0 | 0.00 | 0.00 | 0.00 | 97 | 1020.6 |
| 20260902055458 | 49 | 279 | 0.0 | 1.0 | 0.00 | 0.00 | 0.00 | 97 | 1020.7 |
| 20260902054456 | 49 | 306 | 0.0 | 2.0 | 0.00 | 0.00 | 0.00 | 97 | 1020.7 |
| 20260902053958 | 49 | 345 | 0.0 | 1.0 | 0.00 | 0.00 | 0.00 | 97 | 1020.8 |
| 20260902053450 | 50 | 290 | 0.0 | 1.0 | 0.00 | 0.00 | 0.00 | 97 | 1020.7 |
| 20260902052925 | 50 | 0 | 0.0 | 1.0 | 0.00 | 0.00 | 0.00 | 97 | 1020.5 |
| 20260902052425 | 50 | 110 | 0.0 | 2.0 | 0.00 | 0.00 | 0.00 | 97 | 1020.4 |
| 20260902051918 | 50 | 30 | 0.0 | 2.0 | 0.00 | 0.00 | 0.00 | 97 | 1020.5 |
| 20260902051838 | 51 | 48 | 1.0 | 2.0 | 0.00 | 0.00 | 0.00 | 97 | 1020.3 |
| 20260902050916 | 51 | 34 | 0.0 | 2.0 | 0.00 | 0.00 | 0.00 | 97 | 1020.4 |
| 20260902050415 | 51 | 311 | 0.0 | 2.0 | 0.00 | 0.00 | 0.00 | 97 | 1020.5 |
| 20260902045915 | 51 | 339 | 0.0 | 1.0 | 0.00 | 0.00 | 0.00 | 97 | 1020.6 |
| 20260902045415 | 51 | 117 | 0.0 | 2.0 | 0.00 | 0.00 | 0.00 | 97 | 1020.3 |
| 20260902044910 | 51 | 335 | 0.0 | 2.0 | 0.00 | 0.00 | 0.00 | 97 | 1020.3 |
| 20260902044411 | 51 | 249 | 1.0 | 2.0 | 0.00 | 0.00 | 0.00 | 97 | 1020.4 |
| 20260902043908 | 52 | 25 | 0.0 | 4.0 | 0.00 | 0.00 | 0.00 | 97 | 1020.2 |
| 20260902043408 | 53 | 60 | 1.0 | 4.0 | 0.00 | 0.00 | 0.00 | 98 | 1020.2 |
| 20260902042907 | 53 | 25 | 2.0 | 3.0 | 0.00 | 0.00 | 0.00 | 98 | 1020.2 |
| 20260902042401 | 53 | 36 | 2.0 | 3.0 | 0.00 | 0.00 | 0.00 | 98 | 1020.2 |
| 20260902041901 | 52 | 40 | 2.0 | 3.0 | 0.00 | 0.00 | 0.00 | 98 | 1020.2 |
| 20260902041357 | 52 | 39 | 1.0 | 2.0 | 0.00 | 0.00 | 0.00 | 97 | 1020.4 |
| 20260902040855 | 52 | 9 | 0.0 | 3.0 | 0.00 | 0.00 | 0.00 | 97 | 1020.1 |
| 20260902040355 | 53 | 20 | 2.0 | 3.0 | 0.00 | 0.00 | 0.00 | 97 | 1020.1 |
| 20260902035855 | 52 | 36 | 0.0 | 2.0 | 0.00 | 0.00 | 0.00 | 97 | 1020.1 |
| 20260902035818 | 52 | 18 | 1.0 | 2.0 | 0.00 | 0.00 | 0.00 | 97 | 1020.2 |
| 20260902034847 | 52 | 341 | 0.0 | 2.0 | 0.00 | 0.00 | 0.00 | 97 | 1020.0 |
| 20260902034347 | 52 | 7 | 0.0 | 2.0 | 0.00 | 0.00 | 0.00 | 97 | 1020.2 |
| 20260902033849 | 52 | 28 | 0.0 | 2.0 | 0.00 | 0.00 | 0.00 | 97 | 1020.0 |
| 20260902033347 | 52 | 7 | 0.0 | 2.0 | 0.00 | 0.00 | 0.00 | 96 | 1020.1 |
| 20260902032839 | 52 | 290 | 0.0 | 2.0 | 0.00 | 0.00 | 0.00 | 96 | 1019.9 |
| 20260902032331 | 52 | 13 | 1.0 | 1.0 | 0.00 | 0.00 | 0.00 | 96 | 1020.2 |
| 20260902031831 | 53 | 37 | 0.0 | 1.0 | 0.00 | 0.00 | 0.00 | 96 | 1020.2 |
| 20260902031505 | 53 | 15 | 1.0 | 2.0 | 0.00 | 0.00 | 0.00 | 96 | 1020.1 |
| 20260902030329 | 53 | 38 | 0.0 | 2.0 | 0.00 | 0.00 | 0.00 | 96 | 1020.2 |
| 20260902025826 | 53 | 37 | 0.0 | 2.0 | 0.00 | 0.00 | 0.00 | 96 | 1020.1 |
| 20260902025324 | 53 | 110 | 0.0 | 2.0 | 0.00 | 0.00 | 0.00 | 96 | 1020.1 |
| 20260902024818 | 53 | 37 | 1.0 | 2.0 | 0.00 | 0.00 | 0.00 | 96 | 1020.0 |
| 20260902024320 | 53 | 12 | 0.0 | 2.0 | 0.00 | 0.00 | 0.00 | 95 | 1020.2 |
| 20260902024252 | 53 | 37 | 0.0 | 2.0 | 0.00 | 0.00 | 0.00 | 95 | 1020.1 |
| 20260902023311 | 53 | 332 | 1.0 | 2.0 | 0.00 | 0.00 | 0.00 | 95 | 1020.0 |
| 20260902023214 | 53 | 332 | 2.0 | 2.0 | 0.00 | 0.00 | 0.00 | 95 | 1020.1 |
| 20260902022314 | 54 | 315 | 1.0 | 2.0 | 0.00 | 0.00 | 0.00 | 95 | 1019.9 |
| 20260902021809 | 55 | 30 | 0.0 | 2.0 | 0.00 | 0.00 | 0.00 | 96 | 1019.9 |
| 20260902021711 | 55 | 20 | 2.0 | 2.0 | 0.00 | 0.00 | 0.00 | 96 | 1020.0 |
| 20260902021235 | 55 | 13 | 0.0 | 2.0 | 0.00 | 0.00 | 0.00 | 95 | 1020.0 |
| 20260902020303 | 55 | 24 | 1.0 | 2.0 | 0.00 | 0.00 | 0.00 | 95 | 1019.9 |
| 20260902015804 | 55 | 32 | 1.0 | 1.0 | 0.00 | 0.00 | 0.00 | 94 | 1019.8 |
| 20260902015302 | 56 | 30 | 0.0 | 3.0 | 0.00 | 0.00 | 0.00 | 95 | 1019.9 |
| 20260902014800 | 56 | 12 | 0.0 | 3.0 | 0.00 | 0.00 | 0.00 | 95 | 1019.9 |
| 20260902014245 | 56 | 5 | 2.0 | 2.0 | 0.00 | 0.00 | 0.00 | 95 | 1019.8 |
| 20260902013734 | 56 | 358 | 2.0 | 2.0 | 0.00 | 0.00 | 0.00 | 94 | 1020.0 |
| 20260902013233 | 56 | 17 | 0.0 | 2.0 | 0.00 | 0.00 | 0.00 | 94 | 1019.9 |
| 20260902012743 | 56 | 110 | 0.0 | 2.0 | 0.00 | 0.00 | 0.00 | 93 | 1019.8 |
| 20260902012226 | 56 | 37 | 0.0 | 3.0 | 0.00 | 0.00 | 0.00 | 93 | 1019.7 |
| 20260902011721 | 57 | 22 | 1.0 | 3.0 | 0.00 | 0.00 | 0.00 | 93 | 1019.9 |
| 20260902011219 | 57 | 31 | 2.0 | 2.0 | 0.00 | 0.00 | 0.00 | 92 | 1019.8 |
| 20260902010717 | 57 | 37 | 0.0 | 2.0 | 0.00 | 0.00 | 0.00 | 92 | 1019.7 |
| 20260902010215 | 58 | 29 | 1.0 | 2.0 | 0.00 | 0.00 | 0.00 | 91 | 1019.7 |
| 20260902005712 | 58 | 30 | 1.0 | 2.0 | 0.00 | 0.00 | 0.00 | 91 | 1019.5 |
| 20260902005210 | 58 | 3 | 1.0 | 2.0 | 0.00 | 0.00 | 0.00 | 91 | 1019.5 |
| 20260902004709 | 58 | 30 | 2.0 | 2.0 | 0.00 | 0.00 | 0.00 | 90 | 1019.5 |
| 20260902004636 | 58 | 30 | 2.0 | 2.0 | 0.00 | 0.00 | 0.00 | 90 | 1019.3 |
| 20260902003707 | 59 | 19 | 1.0 | 3.0 | 0.00 | 0.00 | 0.00 | 89 | 1019.3 |
| 20260902003351 | 59 | 37 | 2.0 | 2.0 | 0.00 | 0.00 | 0.00 | 89 | 1019.2 |
| 20260902002619 | 60 | 49 | 1.0 | 2.0 | 0.00 | 0.00 | 0.00 | 87 | 1019.1 |
| 20260902002126 | 60 | 31 | 2.0 | 3.0 | 0.00 | 0.00 | 0.00 | 87 | 1019.3 |
| 20260902001133 | 60 | 13 | 1.0 | 3.0 | 0.00 | 0.00 | 0.00 | 86 | 1019.0 |
| 20260902000633 | 60 | 21 | 1.0 | 5.0 | 0.00 | 0.00 | 0.00 | 86 | 1019.0 |
| 20260902000131 | 60 | 34 | 2.0 | 5.0 | 0.00 | 0.00 | 0.00 | 85 | 1019.1 |
| 20260901235629 | 60 | 40 | 4.0 | 5.0 | 0.00 | 0.00 | 0.00 | 85 | 1018.9 |
| 20260901235126 | 60 | 11 | 1.0 | 2.0 | 0.00 | 0.00 | 0.00 | 85 | 1018.9 |
| 20260901234624 | 61 | 348 | 0.0 | 2.0 | 0.00 | 0.00 | 0.00 | 84 | 1018.8 |
| 20260901234119 | 61 | 19 | 0.0 | 2.0 | 0.00 | 0.00 | 0.00 | 83 | 1018.7 |
| 20260901233610 | 62 | 33 | 0.0 | 2.0 | 0.00 | 0.00 | 0.00 | 82 | 1018.7 |
| 20260901233104 | 62 | 23 | 2.0 | 2.0 | 0.00 | 0.00 | 0.00 | 81 | 1018.6 |
| 20260901232603 | 62 | 11 | 1.0 | 2.0 | 0.00 | 0.00 | 0.00 | 80 | 1018.4 |
| 20260901232101 | 63 | 332 | 1.0 | 2.0 | 0.00 | 0.00 | 0.00 | 79 | 1018.3 |
| 20260901231601 | 63 | 15 | 1.0 | 2.0 | 0.00 | 0.00 | 0.00 | 78 | 1018.5 |
| 20260901231259 | 63 | 32 | 0.0 | 2.0 | 0.00 | 0.00 | 0.00 | 78 | 1018.5 |
| 20260901230242 | 64 | 25 | 0.0 | 3.0 | 0.00 | 0.00 | 0.00 | 76 | 1018.2 |
| 20260901225454 | 65 | 326 | 0.0 | 4.0 | 0.00 | 0.00 | 0.00 | 73 | 1018.2 |
| 20260901224548 | 65 | 33 | 0.0 | 5.0 | 0.00 | 0.00 | 0.00 | 72 | 1018.2 |
| 20260901224049 | 66 | 36 | 4.0 | 5.0 | 0.00 | 0.00 | 0.00 | 72 | 1018.4 |
| 20260901223548 | 66 | 46 | 2.0 | 4.0 | 0.00 | 0.00 | 0.00 | 71 | 1018.3 |
| 20260901223036 | 66 | 38 | 1.0 | 4.0 | 0.00 | 0.00 | 0.00 | 70 | 1018.2 |
| 20260901222535 | 66 | 37 | 4.0 | 5.0 | 0.00 | 0.00 | 0.00 | 70 | 1018.2 |
| 20260901222036 | 67 | 42 | 1.0 | 6.0 | 0.00 | 0.00 | 0.00 | 69 | 1018.2 |
| 20260901221531 | 67 | 27 | 3.0 | 9.0 | 0.00 | 0.00 | 0.00 | 68 | 1018.1 |
| 20260901221030 | 67 | 52 | 2.0 | 9.0 | 0.00 | 0.00 | 0.00 | 67 | 1018.0 |
| 20260901220527 | 67 | 44 | 5.0 | 9.0 | 0.00 | 0.00 | 0.00 | 67 | 1017.9 |
| 20260901220030 | 68 | 47 | 5.0 | 8.0 | 0.00 | 0.00 | 0.00 | 65 | 1018.0 |
| 20260901215522 | 68 | 8 | 2.0 | 7.0 | 0.00 | 0.00 | 0.00 | 64 | 1017.8 |
| 20260901215017 | 69 | 9 | 4.0 | 6.0 | 0.00 | 0.00 | 0.00 | 63 | 1018.0 |
| 20260901214516 | 69 | 31 | 5.0 | 6.0 | 0.00 | 0.00 | 0.00 | 61 | 1018.0 |
| 20260901214442 | 69 | 36 | 3.0 | 6.0 | 0.00 | 0.00 | 0.00 | 61 | 1017.9 |
| 20260901213506 | 69 | 324 | 1.0 | 8.0 | 0.00 | 0.00 | 0.00 | 62 | 1017.8 |
| 20260901213001 | 69 | 43 | 6.0 | 8.0 | 0.00 | 0.00 | 0.00 | 61 | 1017.9 |
| 20260901212456 | 70 | 36 | 6.0 | 8.0 | 0.00 | 0.00 | 0.00 | 60 | 1018.0 |
| 20260901211957 | 70 | 152 | 0.0 | 7.0 | 0.00 | 0.00 | 0.00 | 61 | 1017.8 |
| 20260901211448 | 70 | 25 | 5.0 | 6.0 | 0.00 | 0.00 | 0.00 | 60 | 1017.9 |
| 20260901210945 | 70 | 56 | 3.0 | 6.0 | 0.00 | 0.00 | 0.00 | 59 | 1017.6 |
| 20260901210445 | 71 | 30 | 2.0 | 8.0 | 0.00 | 0.00 | 0.00 | 58 | 1017.7 |
| 20260901205946 | 71 | 72 | 3.0 | 9.0 | 0.00 | 0.00 | 0.00 | 57 | 1017.7 |
| 20260901205439 | 71 | 39 | 5.0 | 9.0 | 0.00 | 0.00 | 0.00 | 55 | 1017.6 |
| 20260901204932 | 71 | 314 | 2.0 | 10.0 | 0.00 | 0.00 | 0.00 | 56 | 1017.5 |
| 20260901204516 | 71 | 17 | 5.0 | 10.0 | 0.00 | 0.00 | 0.00 | 56 | 1017.6 |
| 20260901204033 | 71 | 36 | 3.0 | 9.0 | 0.00 | 0.00 | 0.00 | 54 | 1017.5 |
| 20260901202416 | 72 | 54 | 8.0 | 12.0 | 0.00 | 0.00 | 0.00 | 51 | 1017.5 |
| 20260901202336 | 74 | 7 | 2.0 | 11.0 | 0.00 | 0.00 | 0.00 | 48 | 1017.5 |
| 20260901201409 | 74 | 267 | 2.0 | 8.0 | 0.00 | 0.00 | 0.00 | 48 | 1017.3 |
| 20260901200904 | 74 | 345 | 2.0 | 8.0 | 0.00 | 0.00 | 0.00 | 47 | 1017.5 |
| 20260901200405 | 75 | 291 | 4.0 | 8.0 | 0.00 | 0.00 | 0.00 | 45 | 1017.4 |
| 20260901200350 | 74 | 356 | 2.0 | 8.0 | 0.00 | 0.00 | 0.00 | 46 | 1017.5 |
| 20260901195422 | 75 | 253 | 2.0 | 7.0 | 0.00 | 0.00 | 0.00 | 44 | 1017.3 |
| 20260901195359 | 75 | 19 | 2.0 | 6.0 | 0.00 | 0.00 | 0.00 | 43 | 1017.5 |
| 20260901194354 | 75 | 274 | 2.0 | 7.0 | 0.00 | 0.00 | 0.00 | 45 | 1017.3 |
| 20260901193853 | 75 | 305 | 4.0 | 8.0 | 0.00 | 0.00 | 0.00 | 43 | 1017.1 |
| 20260901193346 | 75 | 299 | 8.0 | 8.0 | 0.00 | 0.00 | 0.00 | 42 | 1017.2 |
| 20260901192841 | 75 | 309 | 5.0 | 7.0 | 0.00 | 0.00 | 0.00 | 40 | 1017.2 |
| 20260901192338 | 75 | 269 | 2.0 | 7.0 | 0.00 | 0.00 | 0.00 | 40 | 1017.3 |
| 20260901192316 | 75 | 320 | 4.0 | 6.0 | 0.00 | 0.00 | 0.00 | 40 | 1017.1 |
| 20260901191813 | 75 | 281 | 2.0 | 7.0 | 0.00 | 0.00 | 0.00 | 42 | 1017.4 |
| 20260901191802 | 74 | 281 | 2.0 | 10.0 | 0.00 | 0.00 | 0.00 | 41 | 1017.0 |
| 20260901190754 | 75 | 297 | 7.0 | 10.0 | 0.00 | 0.00 | 0.00 | 40 | 1017.3 |
| 20260901185825 | 75 | 300 | 8.0 | 9.0 | 0.00 | 0.00 | 0.00 | 41 | 1017.2 |
| 20260901185323 | 75 | 309 | 5.0 | 8.0 | 0.00 | 0.00 | 0.00 | 40 | 1017.4 |
| 20260901185308 | 75 | 305 | 4.0 | 8.0 | 0.00 | 0.00 | 0.00 | 41 | 1017.3 |
| 20260901184317 | 76 | 317 | 0.0 | 7.0 | 0.00 | 0.00 | 0.00 | 42 | 1017.1 |
| 20260901183817 | 76 | 299 | 3.0 | 7.0 | 0.00 | 0.00 | 0.00 | 43 | 1017.3 |
| 20260901183316 | 76 | 307 | 4.0 | 7.0 | 0.00 | 0.00 | 0.00 | 38 | 1017.1 |
| 20260901182811 | 75 | 33 | 2.0 | 7.0 | 0.00 | 0.00 | 0.00 | 42 | 1017.2 |
| 20260901182305 | 76 | 59 | 5.0 | 6.0 | 0.00 | 0.00 | 0.00 | 41 | 1017.1 |
| 20260901181759 | 76 | 296 | 2.0 | 7.0 | 0.00 | 0.00 | 0.00 | 38 | 1017.2 |
| 20260901181749 | 75 | 69 | 1.0 | 7.0 | 0.00 | 0.00 | 0.00 | 41 | 1017.1 |
| 20260901180753 | 75 | 306 | 3.0 | 8.0 | 0.00 | 0.00 | 0.00 | 40 | 1017.2 |
| 20260901180252 | 75 | 267 | 2.0 | 10.0 | 0.00 | 0.00 | 0.00 | 41 | 1017.3 |
| 20260901175748 | 75 | 299 | 4.0 | 10.0 | 0.00 | 0.00 | 0.00 | 42 | 1017.3 |
| 20260901175248 | 76 | 271 | 3.0 | 8.0 | 0.00 | 0.00 | 0.00 | 43 | 1017.0 |
| 20260901174745 | 76 | 55 | 3.0 | 9.0 | 0.00 | 0.00 | 0.00 | 40 | 1017.2 |
| 20260901174247 | 76 | 55 | 6.0 | 9.0 | 0.00 | 0.00 | 0.00 | 40 | 1016.9 |
| 20260901173755 | 76 | 53 | 2.0 | 6.0 | 0.00 | 0.00 | 0.00 | 44 | 1017.2 |
| 20260901173708 | 76 | 284 | 5.0 | 6.0 | 0.00 | 0.00 | 0.00 | 42 | 1017.0 |
| 20260901172735 | 76 | 325 | 2.0 | 6.0 | 0.00 | 0.00 | 0.00 | 43 | 1017.3 |
| 20260901172237 | 76 | 294 | 2.0 | 6.0 | 0.00 | 0.00 | 0.00 | 43 | 1017.1 |
| 20260901171737 | 77 | 41 | 2.0 | 7.0 | 0.00 | 0.00 | 0.00 | 41 | 1017.2 |
| 20260901171233 | 76 | 41 | 2.0 | 8.0 | 0.00 | 0.00 | 0.00 | 43 | 1017.1 |
| 20260901170726 | 76 | 280 | 2.0 | 8.0 | 0.00 | 0.00 | 0.00 | 43 | 1017.0 |
| 20260901170224 | 75 | 297 | 1.0 | 6.0 | 0.00 | 0.00 | 0.00 | 43 | 1017.2 |
| 20260901165718 | 76 | 307 | 3.0 | 6.0 | 0.00 | 0.00 | 0.00 | 47 | 1017.2 |
| 20260901165216 | 75 | 41 | 4.0 | 9.0 | 0.00 | 0.00 | 0.00 | 45 | 1017.2 |
| 20260901164708 | 74 | 308 | 3.0 | 9.0 | 0.00 | 0.00 | 0.00 | 46 | 1017.5 |
| 20260901164211 | 75 | 293 | 4.0 | 7.0 | 0.00 | 0.00 | 0.00 | 44 | 1017.4 |
| 20260901163710 | 75 | 306 | 5.0 | 6.0 | 0.00 | 0.00 | 0.00 | 44 | 1017.4 |
| 20260901163208 | 75 | 307 | 4.0 | 6.0 | 0.00 | 0.00 | 0.00 | 43 | 1017.5 |
| 20260901162659 | 75 | 35 | 2.0 | 8.0 | 0.00 | 0.00 | 0.00 | 43 | 1017.6 |
| 20260901162153 | 74 | 300 | 4.0 | 8.0 | 0.00 | 0.00 | 0.00 | 44 | 1017.3 |
| 20260901161654 | 74 | 298 | 3.0 | 7.0 | 0.00 | 0.00 | 0.00 | 45 | 1017.4 |
| 20260901161147 | 75 | 274 | 2.0 | 10.0 | 0.00 | 0.00 | 0.00 | 45 | 1017.4 |